BAW32 VHHH-EGLL

Flight info

Callsign BAW32
Flight time N/A
Altitude 34100
Route BEKOL A461 SHL W22 TEPID W24 OSNOV G586 QP B330 ELKAL W179 IGNAK/K0930S1010 W179 WFX/K0930S1040 W179 OMBON W195 VIDEK/K0924S1010 W195 LAXAL/K0920S1040 W195 IDOPA W197 ANDIM B215 IBANO G470 AKLAS W192 FKG A368 SARIN/K0904F340 N161 GILAK/K0904F360 N161 GASBI/N0493F360 N161 ABTEK/N0495F380 N161 LEYLA T916 MATAL DCT REBLO UR317 TBN UM11 CRM UL746 ODERO DCT OPT DCT TEGRI DCT GAZDA DCT ARSIN/N0488F400 DCT PEROL DCT RENKA DCT INBED DCT BOMBI DCT DENUT L608 LOGAN
Aircraft A35K/H-SDE2E3GHIJ3J4J5LM1ORWXY/LB1D1

Departure

Time 2026-05-07 09:18
Airport Hong Kong International Airport (VHHH)

Arrival

Time N/A
Airport London Heathrow Airport (EGLL)
Time Latitude Longitude Altitude Speed Heading
2026-05-07 08:10 22.31481 113.92558 41 ft 0 kts 206°
2026-05-07 09:02 22.31487 113.92561 43 ft 4 kts 206°
2026-05-07 09:02 22.31512 113.92574 41 ft 4 kts 206°
2026-05-07 09:02 22.31531 113.92584 41 ft 3 kts 207°
2026-05-07 09:03 22.31549 113.92596 39 ft 4 kts 240°
2026-05-07 09:03 22.31555 113.92615 40 ft 4 kts 278°
2026-05-07 09:03 22.31548 113.92638 41 ft 4 kts 295°
2026-05-07 09:03 22.31542 113.92653 41 ft 0 kts 296°
2026-05-07 09:06 22.31550 113.92635 42 ft 5 kts 295°
2026-05-07 09:06 22.31571 113.92588 43 ft 7 kts 296°
2026-05-07 09:07 22.31594 113.92537 43 ft 8 kts 296°
2026-05-07 09:07 22.31618 113.92484 43 ft 8 kts 296°
2026-05-07 09:07 22.31643 113.92429 43 ft 8 kts 295°
2026-05-07 09:07 22.31644 113.92374 42 ft 7 kts 263°
2026-05-07 09:08 22.31628 113.92315 42 ft 10 kts 250°
2026-05-07 09:08 22.31601 113.92234 42 ft 12 kts 251°
2026-05-07 09:08 22.31574 113.92147 42 ft 12 kts 251°
2026-05-07 09:08 22.31542 113.92069 42 ft 8 kts 220°
2026-05-07 09:09 22.31502 113.92068 42 ft 6 kts 167°
2026-05-07 09:09 22.31445 113.92085 42 ft 10 kts 162°
2026-05-07 09:09 22.31367 113.92115 43 ft 12 kts 160°
2026-05-07 09:09 22.31286 113.92145 43 ft 12 kts 161°
2026-05-07 09:10 22.31203 113.92176 43 ft 13 kts 161°
2026-05-07 09:10 22.31119 113.92208 43 ft 14 kts 161°
2026-05-07 09:10 22.31016 113.92247 43 ft 16 kts 160°
2026-05-07 09:10 22.30910 113.92287 43 ft 16 kts 160°
2026-05-07 09:11 22.30804 113.92327 43 ft 16 kts 160°
2026-05-07 09:11 22.30741 113.92345 43 ft 4 kts 188°
2026-05-07 09:11 22.30714 113.92312 43 ft 8 kts 247°
2026-05-07 09:11 22.30688 113.92237 43 ft 13 kts 250°
2026-05-07 09:12 22.30652 113.92127 43 ft 18 kts 251°
2026-05-07 09:12 22.30607 113.91986 43 ft 22 kts 251°
2026-05-07 09:12 22.30552 113.91817 43 ft 26 kts 250°
2026-05-07 09:12 22.30499 113.91652 43 ft 21 kts 251°
2026-05-07 09:13 22.30450 113.91502 42 ft 21 kts 251°
2026-05-07 09:13 22.30402 113.91356 42 ft 20 kts 251°
2026-05-07 09:13 22.30357 113.91212 43 ft 20 kts 251°
2026-05-07 09:13 22.30312 113.91073 43 ft 19 kts 251°
2026-05-07 09:14 22.30268 113.90937 43 ft 19 kts 251°
2026-05-07 09:14 22.30225 113.90803 43 ft 19 kts 251°
2026-05-07 09:14 22.30183 113.90674 43 ft 18 kts 251°
2026-05-07 09:14 22.30141 113.90545 42 ft 18 kts 251°
2026-05-07 09:15 22.30100 113.90418 42 ft 18 kts 250°
2026-05-07 09:15 22.30060 113.90293 42 ft 17 kts 251°
2026-05-07 09:15 22.30020 113.90171 42 ft 17 kts 250°
2026-05-07 09:15 22.29981 113.90050 42 ft 17 kts 251°
2026-05-07 09:16 22.29943 113.89931 42 ft 17 kts 251°
2026-05-07 09:16 22.29905 113.89815 42 ft 16 kts 250°
2026-05-07 09:16 22.29836 113.89746 43 ft 12 kts 183°
2026-05-07 09:16 22.29762 113.89761 43 ft 10 kts 164°
2026-05-07 09:17 22.29694 113.89784 43 ft 10 kts 162°
2026-05-07 09:17 22.29645 113.89831 43 ft 7 kts 107°
2026-05-07 09:17 22.29651 113.89883 43 ft 8 kts 74°
2026-05-07 09:17 22.29708 113.90068 42 ft 54 kts 70°
2026-05-07 09:18 22.29905 113.90677 42 ft 116 kts 71°
2026-05-07 09:18 22.30231 113.91688 43 ft 168 kts 70°
2026-05-07 09:18 22.30637 113.92983 415 ft 184 kts 70°
2026-05-07 09:18 22.31042 113.94233 1311 ft 171 kts 74°
2026-05-07 09:19 22.31442 113.95419 1937 ft 171 kts 73°
2026-05-07 09:19 22.31838 113.96689 2166 ft 185 kts 75°
2026-05-07 09:19 22.32213 113.98051 2454 ft 191 kts 76°
2026-05-07 09:19 22.32597 113.99410 2889 ft 188 kts 74°
2026-05-07 09:20 22.33021 114.00759 3166 ft 195 kts 71°
2026-05-07 09:20 22.33521 114.02208 3251 ft 215 kts 69°
2026-05-07 09:20 22.33903 114.03795 3469 ft 223 kts 88°
2026-05-07 09:20 22.33608 114.05419 3837 ft 225 kts 114°
2026-05-07 09:21 22.32727 114.06860 4027 ft 235 kts 135°
2026-05-07 09:21 22.31900 114.07615 4291 ft 235 kts 147°
2026-05-07 09:21 22.30416 114.08411 4554 ft 244 kts 162°
2026-05-07 09:21 22.28732 114.08766 4833 ft 250 kts 180°
2026-05-07 09:22 22.26963 114.08766 5128 ft 261 kts 183°
2026-05-07 09:22 22.25115 114.08723 5480 ft 269 kts 182°
2026-05-07 09:22 22.22619 114.08683 6115 ft 273 kts 182°
2026-05-07 09:22 22.21332 114.08666 6448 ft 275 kts 182°
2026-05-07 09:23 22.19410 114.08740 6883 ft 280 kts 173°
2026-05-07 09:23 22.17573 114.09458 7357 ft 284 kts 153°
2026-05-07 09:23 22.15899 114.10620 7858 ft 289 kts 142°
2026-05-07 09:23 22.14605 114.12290 8334 ft 296 kts 118°
2026-05-07 09:24 22.14145 114.14458 8786 ft 302 kts 86°
2026-05-07 09:24 22.14755 114.16607 9252 ft 304 kts 56°
2026-05-07 09:24 22.16238 114.18217 9751 ft 304 kts 35°
2026-05-07 09:24 22.18003 114.19492 10114 ft 310 kts 25°
2026-05-07 09:25 22.20083 114.20163 10296 ft 318 kts 360°
2026-05-07 09:25 22.22298 114.19948 10570 ft 325 kts 347°
2026-05-07 09:25 22.24559 114.19494 10837 ft 336 kts 346°
2026-05-07 09:25 22.26854 114.19020 11107 ft 346 kts 346°
2026-05-07 09:26 22.29292 114.18516 11367 ft 356 kts 347°
2026-05-07 09:26 22.31725 114.18014 11615 ft 366 kts 347°
2026-05-07 09:26 22.34253 114.17492 11853 ft 375 kts 347°
2026-05-07 09:26 22.36846 114.16956 12079 ft 383 kts 347°
2026-05-07 09:27 22.39486 114.16411 12378 ft 389 kts 347°
2026-05-07 09:27 22.42150 114.15860 12757 ft 392 kts 347°
2026-05-07 09:27 22.47540 114.14745 13531 ft 397 kts 346°
2026-05-07 09:28 22.50256 114.14181 13874 ft 399 kts 346°
2026-05-07 09:28 22.52973 114.13607 14200 ft 401 kts 345°
2026-05-07 09:28 22.55654 114.12730 14528 ft 400 kts 335°
2026-05-07 09:28 22.58144 114.11391 14870 ft 399 kts 328°
2026-05-07 09:29 22.60542 114.09875 15191 ft 401 kts 326°
2026-05-07 09:29 22.62902 114.08255 15521 ft 402 kts 324°
2026-05-07 09:29 22.65239 114.06587 15846 ft 404 kts 323°
2026-05-07 09:29 22.67584 114.04893 16172 ft 405 kts 323°
2026-05-07 09:30 22.69931 114.03198 16493 ft 407 kts 323°
2026-05-07 09:30 22.72299 114.01499 16805 ft 409 kts 324°
2026-05-07 09:30 22.74685 113.99797 17129 ft 411 kts 324°
2026-05-07 09:30 22.77082 113.98093 17459 ft 413 kts 324°
2026-05-07 09:31 22.79495 113.96382 17782 ft 415 kts 324°
2026-05-07 09:31 22.81913 113.94668 18075 ft 417 kts 324°
2026-05-07 09:31 22.84348 113.92941 18344 ft 419 kts 324°
2026-05-07 09:31 22.86790 113.91207 18623 ft 420 kts 324°
2026-05-07 09:32 22.89235 113.89471 18881 ft 422 kts 324°
2026-05-07 09:32 22.91698 113.87722 19164 ft 423 kts 324°
2026-05-07 09:32 22.94158 113.85975 19435 ft 424 kts 324°
2026-05-07 09:32 22.96635 113.84215 19716 ft 425 kts 324°
2026-05-07 09:33 22.99116 113.82451 19973 ft 427 kts 324°
2026-05-07 09:33 23.01601 113.80682 20239 ft 428 kts 324°
2026-05-07 09:33 23.04095 113.78907 20506 ft 430 kts 324°
2026-05-07 09:33 23.06604 113.77119 20790 ft 431 kts 324°
2026-05-07 09:34 23.09114 113.75331 21063 ft 433 kts 324°
2026-05-07 09:34 23.11631 113.73536 21342 ft 434 kts 324°
2026-05-07 09:34 23.14163 113.71730 21636 ft 435 kts 324°
2026-05-07 09:34 23.16698 113.69921 21916 ft 437 kts 324°
2026-05-07 09:35 23.19239 113.68107 22201 ft 438 kts 323°
2026-05-07 09:35 23.21789 113.66285 22497 ft 440 kts 324°
2026-05-07 09:35 23.24321 113.64475 22788 ft 441 kts 323°
2026-05-07 09:35 23.26887 113.62641 23065 ft 443 kts 323°
2026-05-07 09:36 23.29496 113.60775 23354 ft 444 kts 323°
2026-05-07 09:36 23.32052 113.58945 23599 ft 446 kts 323°
2026-05-07 09:36 23.34647 113.57088 23832 ft 447 kts 323°
2026-05-07 09:36 23.37248 113.55225 24069 ft 449 kts 323°
2026-05-07 09:37 23.39863 113.53350 24292 ft 450 kts 324°
2026-05-07 09:37 23.42479 113.51474 24548 ft 452 kts 324°
2026-05-07 09:37 23.45111 113.49586 24797 ft 453 kts 324°
2026-05-07 09:37 23.47741 113.47698 25052 ft 455 kts 324°
2026-05-07 09:38 23.50391 113.45796 25324 ft 456 kts 324°
2026-05-07 09:38 23.53039 113.43895 25597 ft 457 kts 324°
2026-05-07 09:38 23.55708 113.41976 25855 ft 459 kts 324°
2026-05-07 09:38 23.58174 113.40203 26110 ft 461 kts 324°